Location: ????????
(56.1167°N, 38.6333°E)
Time: 22:01:55
(UTC+00:00)

Cosmos 1908 Rocket - Pass Details

Date: 18 November 2025
Orbit: 599 x 625 km, 82.5° (Epoch: 14 December)

Event Time Altitude Azimuth Distance (km) Brightness Sun altitude
Rises 14:25:54 0° 197° (SSW) 2,898 7.6 -10.0°
Reaches altitude 10° 14:28:08 10° 200° (SSW) 1,998 6.8 -10.3°
Maximum altitude 14:32:34 69° 285° (WNW) 674 3.9 -10.9°
Drops below altitude 10° 14:37:01 10° 9° (N) 2,015 5.9 -11.4°
Sets 14:39:17 0° 12° (NNE) 2,925 6.7 -11.7°
